Flag for Germany Weather past 2 weeks in Kaiserslautern, Rhineland-Palatinate, Germany

Now
99 °F

Sunny.


Feels Like: 98 °F
Forecast: 64 / 96 °F
Wind: 9 mph from West

Location: Ramstein

Current Time: Jul 4, 2015 at 4:24:54 PM

Latest Report: Jul 4, 2015 at 3:58 PM


Visibility: N/A

Pressure: 30.07 "Hg

Humidity: 24%

Dew point: 56 °F

Location of KaiserslauternLocation

Historic Weather in Kaiserslautern — Graph

°F

Kaiserslautern temperature yesterday

Maximum temperature yesterday: 97 °F (at 5:58 PM)
Minimum temperature yesterday: 64 °F (at 5:58 AM)
Average temperature yesterday: 82 °F

Past Weeks' High & Low Weather Summary

 TemperatureHumidityPressure
High97 °F (Jul 3, 5:58 PM)100% (Jun 22, 2:55 AM)30.23 "Hg (Jun 22, 2:55 AM)
Low39 °F (Jun 24, 6:04 AM)25% (Jun 30, 6:58 PM)29.73 "Hg (Jun 22, 10:58 PM)
Average66 °F67%30.09 "Hg
* Reported Jun 19 2:58 PM — Jul 4 2:58 PM, Kaiserslautern, Weather by CustomWeather, © 2015

Note: Actual official high and low records may vary slightly from our data, if they occured in-between our weather recording intervals... More about our weather records

Advertising

Kaiserslautern weather history for previous 24 hours

 ConditionsComfort  
Time TempWeatherWind HumidityBarometerVisibility
2:58 PM
Sat, Jul 4
97 °FSunny.13 mph29%30.07 "HgN/A
1:58 PM95 °FSunny.12 mph32%30.07 "HgN/A
12:58 PM92 °FSunny.5 mph37%30.09 "HgN/A
11:58 AM90 °FSunny.6 mph41%30.09 "HgN/A
10:58 AM88 °FSunny.7 mph40%30.09 "HgN/A
9:58 AM86 °FSunny.7 mph43%30.09 "HgN/A
8:58 AM81 °FSunny.No wind58%30.09 "HgN/A
7:58 AM73 °FSunny.No wind74%30.09 "HgN/A
6:58 AM68 °FSunny.2 mph94%30.10 "HgN/A
5:58 AM64 °FClear.No wind98%30.09 "HgN/A
4:58 AM66 °FClear.No wind94%30.09 "HgN/A
3:58 AM67 °FClear.2 mph94%30.09 "HgN/A
2:58 AM66 °FClear.No wind96%30.11 "HgN/A
1:58 AM71 °FClear.No wind82%30.11 "HgN/A
12:58 AM72 °FClear.3 mph80%30.12 "HgN/A
11:58 PM
Fri, Jul 3
75 °FClear.5 mph74%30.11 "HgN/A
10:58 PM77 °FClear.No wind76%30.13 "HgN/A
9:58 PM81 °FSunny.2 mph66%30.13 "HgN/A
8:58 PM90 °FSunny.5 mph46%30.11 "HgN/A
7:58 PM91 °FSunny.6 mph45%30.12 "HgN/A
6:58 PM93 °FSunny.7 mph41%30.11 "HgN/A
5:58 PM97 °FPassing clouds.9 mph32%30.12 "HgN/A
4:58 PM96 °FSunny.3 mph29%30.14 "HgN/A
Weather by CustomWeather, © 2015

See weather overviewHow to use our weather pages